• In Netherlands
  • List of Countries
  • For 7 days
  • Water Temperature
  • Satellite Maps
  • Weather Map
  • Weather Widgets
  • user-avatar
    Login

    Hourly Weather Eisenstadt

    Today, 29 June, Thursday

    Time Temperature Precipitation Wind Pressure Humidity
    00:00 +20°C° 0.5 mm 5 mps 710 mmHg 81%
    01:00 +19°C° 0.5 mm 4 mps 710 mmHg 83%
    02:00 +19°C° 0 mm 4 mps 710 mmHg 84%
    03:00 +19°C° 0 mm 5 mps 709 mmHg 85%
    04:00 +17°C° 0 mm 5 mps 709 mmHg 86%
    05:00 +19°C° 0 mm 5 mps 709 mmHg 83%
    06:00 +20°C° 0 mm 6 mps 709 mmHg 80%
    07:00 +21°C° 0 mm 6 mps 709 mmHg 77%
    08:00 +22°C° 0.3 mm 6 mps 710 mmHg 72%
    09:00 +22°C° 0.3 mm 6 mps 710 mmHg 68%
    10:00 +23°C° 0.3 mm 6 mps 711 mmHg 63%
    11:00 +24°C° 1.2 mm 6 mps 711 mmHg 62%
    12:00 +25°C° 1.2 mm 5 mps 711 mmHg 61%
    13:00 +25°C° 1.2 mm 5 mps 712 mmHg 60%
    14:00 +25°C° 1.1 mm 4 mps 712 mmHg 60%
    15:00 +25°C° 1.1 mm 4 mps 712 mmHg 60%
    16:00 +25°C° 1.1 mm 3 mps 713 mmHg 59%
    17:00 +24°C° 0.6 mm 3 mps 713 mmHg 64%
    18:00 +22°C° 0.6 mm 3 mps 713 mmHg 69%
    19:00 +21°C° 0.6 mm 2 mps 713 mmHg 73%
    20:00 +19°C° 0.1 mm 2 mps 713 mmHg 76%
    21:00 +17°C° 0.1 mm 2 mps 713 mmHg 78%
    22:00 +16°C° 0.1 mm 2 mps 713 mmHg 80%
    23:00 +16°C° 0 mm 2 mps 714 mmHg 79%

    Tomorrow, 30 June, Friday

    Time Temperature Precipitation Wind Pressure Humidity
    00:00 +16°C° 0 mm 2 mps 714 mmHg 79%
    01:00 +14°C° 0 mm 3 mps 714 mmHg 78%
    02:00 +15°C° 0 mm 2 mps 714 mmHg 80%
    03:00 +15°C° 0 mm 2 mps 714 mmHg 82%
    04:00 +14°C° 0 mm 2 mps 715 mmHg 84%
    05:00 +15°C° 0 mm 2 mps 715 mmHg 80%
    06:00 +17°C° 0 mm 2 mps 716 mmHg 76%
    07:00 +18°C° 0 mm 3 mps 716 mmHg 72%
    08:00 +19°C° 0.1 mm 3 mps 717 mmHg 68%
    09:00 +20°C° 0.1 mm 3 mps 717 mmHg 63%
    10:00 +22°C° 0.1 mm 3 mps 717 mmHg 59%
    11:00 +22°C° 0.4 mm 3 mps 718 mmHg 57%
    12:00 +24°C° 0.4 mm 3 mps 718 mmHg 55%
    13:00 +24°C° 0.4 mm 3 mps 718 mmHg 53%
    14:00 +25°C° 0.3 mm 3 mps 718 mmHg 52%
    15:00 +25°C° 0.3 mm 3 mps 718 mmHg 51%
    16:00 +25°C° 0.3 mm 4 mps 718 mmHg 49%
    17:00 +23°C° 0 mm 4 mps 718 mmHg 53%
    18:00 +22°C° 0 mm 4 mps 717 mmHg 58%
    19:00 +20°C° 0 mm 4 mps 717 mmHg 62%
    20:00 +19°C° 0 mm 4 mps 717 mmHg 64%
    21:00 +18°C° 0 mm 3 mps 717 mmHg 67%
    22:00 +17°C° 0 mm 3 mps 717 mmHg 69%
    23:00 +17°C° 0.1 mm 3 mps 717 mmHg 71%

    Day after tomorrow, 1 July, Saturday

    Time Temperature Precipitation Wind Pressure Humidity
    00:00 +16°C° 0.1 mm 3 mps 717 mmHg 74%
    01:00 +16°C° 0.1 mm 2 mps 717 mmHg 76%
    02:00 +16°C° 0.2 mm 2 mps 717 mmHg 79%
    03:00 +15°C° 0.2 mm 2 mps 717 mmHg 82%
    04:00 +15°C° 0.2 mm 2 mps 717 mmHg 84%
    05:00 +14°C° 1.2 mm 3 mps 718 mmHg 85%
    06:00 +14°C° 1.2 mm 3 mps 718 mmHg 87%
    07:00 +14°C° 1.2 mm 4 mps 718 mmHg 88%
    08:00 +14°C° 0.6 mm 4 mps 719 mmHg 83%
    09:00 +16°C° 0.6 mm 3 mps 719 mmHg 79%
    10:00 +17°C° 0.6 mm 3 mps 720 mmHg 74%
    11:00 +19°C° 0 mm 3 mps 720 mmHg 65%
    12:00 +21°C° 0 mm 3 mps 720 mmHg 56%
    13:00 +23°C° 0 mm 2 mps 720 mmHg 47%
    14:00 +24°C° 0.2 mm 2 mps 720 mmHg 49%
    15:00 +24°C° 0.2 mm 2 mps 719 mmHg 50%
    16:00 +24°C° 0.2 mm 2 mps 719 mmHg 52%
    17:00 +22°C° 0.3 mm 1 mps 719 mmHg 58%
    18:00 +21°C° 0.3 mm 1 mps 719 mmHg 65%
    19:00 +20°C° 0.3 mm 1 mps 719 mmHg 72%
    20:00 +19°C° 0.3 mm 1 mps 719 mmHg 73%
    21:00 +18°C° 0.3 mm 1 mps 719 mmHg 75%
    22:00 +15°C° 0.3 mm 2 mps 719 mmHg 77%
    23:00 +15°C° 0.5 mm 2 mps 719 mmHg 78%

    2 July, Sunday

    Time Temperature Precipitation Wind Pressure Humidity
    00:00 +15°C° 0.5 mm 2 mps 720 mmHg 80%
    01:00 +14°C° 0.5 mm 3 mps 720 mmHg 82%
    02:00 +14°C° 0.1 mm 3 mps 720 mmHg 82%
    03:00 +13°C° 0.1 mm 3 mps 720 mmHg 82%
    04:00 +13°C° 0.1 mm 3 mps 720 mmHg 81%
    05:00 +14°C° 0 mm 3 mps 720 mmHg 78%
    06:00 +17°C° 0 mm 4 mps 720 mmHg 75%
    07:00 +18°C° 0 mm 4 mps 721 mmHg 72%
    08:00 +19°C° 0.1 mm 4 mps 721 mmHg 68%
    09:00 +20°C° 0.1 mm 4 mps 721 mmHg 63%
    10:00 +21°C° 0.1 mm 5 mps 721 mmHg 58%
    11:00 +20°C° 0.2 mm 5 mps 721 mmHg 60%
    12:00 +20°C° 0.2 mm 6 mps 722 mmHg 62%
    13:00 +19°C° 0.2 mm 6 mps 722 mmHg 64%
    14:00 +19°C° 0.1 mm 6 mps 722 mmHg 64%
    15:00 +18°C° 0.1 mm 7 mps 722 mmHg 64%
    16:00 +17°C° 0.1 mm 7 mps 722 mmHg 64%
    17:00 +17°C° 0 mm 6 mps 723 mmHg 66%
    18:00 +16°C° 0 mm 6 mps 723 mmHg 69%
    19:00 +16°C° 0 mm 6 mps 723 mmHg 71%
    20:00 +15°C° 0 mm 5 mps 723 mmHg 73%
    21:00 +14°C° 0 mm 5 mps 724 mmHg 74%
    22:00 +14°C° 0 mm 4 mps 724 mmHg 76%
    23:00 +13°C° 0 mm 4 mps 724 mmHg 78%

    3 July, Monday

    Time Temperature Precipitation Wind Pressure Humidity
    00:00 +13°C° 0 mm 4 mps 724 mmHg 80%
    01:00 +13°C° 0 mm 4 mps 724 mmHg 82%
    02:00 +13°C° 0 mm 4 mps 724 mmHg 83%
    03:00 +13°C° 0 mm 4 mps 724 mmHg 83%
    04:00 +12°C° 0 mm 3 mps 724 mmHg 84%
    05:00 +14°C° 0 mm 4 mps 724 mmHg 80%
    06:00 +15°C° 0 mm 4 mps 725 mmHg 77%
    07:00 +17°C° 0 mm 4 mps 725 mmHg 73%
    08:00 +18°C° 0.1 mm 4 mps 725 mmHg 68%
    09:00 +19°C° 0.1 mm 5 mps 725 mmHg 62%
    10:00 +20°C° 0.1 mm 5 mps 725 mmHg 57%
    11:00 +21°C° 0 mm 5 mps 725 mmHg 54%
    12:00 +22°C° 0 mm 5 mps 724 mmHg 50%
    13:00 +23°C° 0 mm 5 mps 724 mmHg 47%
    14:00 +23°C° 0.1 mm 5 mps 724 mmHg 48%
    15:00 +23°C° 0.1 mm 5 mps 724 mmHg 49%
    16:00 +23°C° 0.1 mm 5 mps 724 mmHg 50%
    17:00 +22°C° 0 mm 4 mps 724 mmHg 56%
    18:00 +21°C° 0 mm 4 mps 724 mmHg 62%
    19:00 +19°C° 0 mm 3 mps 724 mmHg 69%
    20:00 +18°C° 0 mm 3 mps 724 mmHg 73%
    21:00 +17°C° 0 mm 3 mps 724 mmHg 76%
    22:00 +14°C° 0 mm 3 mps 724 mmHg 80%
    23:00 +14°C° 0 mm 3 mps 724 mmHg 81%

    4 July, Tuesday

    Time Temperature Precipitation Wind Pressure Humidity
    00:00 +14°C° 0 mm 3 mps 724 mmHg 82%
    01:00 +13°C° 0 mm 3 mps 724 mmHg 83%
    02:00 +13°C° 0 mm 3 mps 724 mmHg 84%
    03:00 +12°C° 0 mm 3 mps 724 mmHg 85%
    04:00 +12°C° 0 mm 3 mps 724 mmHg 86%
    05:00 +14°C° 0 mm 3 mps 724 mmHg 80%
    06:00 +16°C° 0 mm 3 mps 725 mmHg 74%
    07:00 +18°C° 0 mm 3 mps 725 mmHg 68%
    08:00 +19°C° 0 mm 3 mps 725 mmHg 63%
    09:00 +21°C° 0 mm 3 mps 725 mmHg 57%
    10:00 +22°C° 0 mm 3 mps 725 mmHg 52%
    11:00 +24°C° 0.1 mm 3 mps 725 mmHg 51%
    12:00 +24°C° 0.1 mm 3 mps 724 mmHg 51%
    13:00 +25°C° 0.1 mm 3 mps 724 mmHg 50%
    14:00 +25°C° 0.3 mm 3 mps 724 mmHg 51%
    15:00 +25°C° 0.3 mm 2 mps 724 mmHg 52%
    16:00 +25°C° 0.3 mm 2 mps 723 mmHg 53%
    17:00 +24°C° 0.4 mm 2 mps 723 mmHg 60%
    18:00 +23°C° 0.4 mm 1 mps 723 mmHg 67%
    19:00 +22°C° 0.4 mm 1 mps 723 mmHg 74%
    20:00 +20°C° 0.1 mm 1 mps 723 mmHg 78%
    21:00 +18°C° 0.1 mm 1 mps 723 mmHg 81%
    22:00 +15°C° 0.1 mm 1 mps 723 mmHg 84%
    23:00 +14°C° 0 mm 1 mps 723 mmHg 85%
    Show more